www.pogodaiklimat.ru

Погода и климат >> Архив погоды >> Россия >> Красноярский край >> Усть-Уса


ПОГОДА в Усть-Усе

  • Прогноз погоды в Усть-Усе
  • Монитор погоды в Усть-Усе

АРХИВ ПОГОДЫ в Усть-Усе

Время (UTC), дата Ветер
(напр.,м/с)
 
Видим.   Явления Облачность Т
(С)
Тd
(С)
f
(%)
Тe
(С)
Тes
(С)
Комфортность P
(гПа)
Po
(гПа)
Тmin
(С)
Tmax
(С)
R
(мм)
R24
(мм)
S
(см)
12 12.07 В 1 4000 м слаб. ливневой дождь 10/10 600 м
[Cb cap]
+15.3 +13.9 91 +16 +16 1013.4 947.3 +15.7 15
18 12.07 ЮВ 1 н/о в посл. час ливневой дождь 10/10 600 м
[Cb cap]
+14.6 +13.3 92 +15 +15 1012.9 946.6
00 13.07 В 1 50 км {ливн. осадки} 10/10 300 м
[Cb cap]
+14.6 +14.4 99 +15 +15 1011.7 945.5 +14.3 5
06 13.07 штиль 0 50 км 9/9 600 м
[Cb cap]
+19.3 +14.5 74 +21 +23 комфорт 1008.6 943.7
12 13.07 З 4 50 км в посл. час ливневой дождь 10/10 600 м
[Cb cap]
+18.5 +17.4 93 +19 +19 1007.2 942.3 +21.4 0.4
18 13.07 штиль 0 н/о {ливн. осадки} 10/10 600 м
[Cb cap]
+17.2 +16.7 97 +17 +17 1007.3 942.1
00 14.07 ЮВ 1 50 км 10/10 600 м
[Cb cap]
+17.2 +16.7 97 +18 +18 1006.9 941.7 +16.9 2
06 14.07 В 2 10 км 9/5 600 м
[Cb calv Cs]
+23.4 +10.3 44 +25 +32 комфорт 1003.2 939.5
12 14.07 В 4 50 км 9/9 600 м
[Cb cap]
+21.6 +13.3 59 +24 +24 комфорт 1004.4 940.2 +24.5
15 14.07 В 2 н/о ясно +16.2 +13.4 83 +16 +16 1007.0 941.5
18 14.07 В 2 н/о ясно +16.2 +13.4 83 +16 +16 1007.0 941.5
00 15.07 штиль 0 50 км 6/6 600 м
[Cb cap]
+14.0 +12.0 88 +14 +15 1008.0 941.9 +12.6
06 15.07 В 1 20 км слаб. ливневой дождь 10/10 600 м
[Cb cap]
+19.9 +14.6 72 +23 +23 комфорт 1003.3 938.4
12 15.07 В 7 50 км {ливн. осадки} 10/10 600 м
[Cb cap]
+20.4 +9.3 49 +21 +21 комфорт 1002.7 938.3 +23.6 0.0
18 15.07 штиль 0 н/о в посл. час ливневой дождь 10/10 600 м
[Cb cap]
+14.2 +13.1 93 +14 +14 1007.0 941.0
00 16.07 В 1 4000 м слаб. ливневой дождь 10/10 600 м
[Cb cap]
+14.0 +13.1 94 +14 +14 1006.1 940.2 +13.7 5
06 16.07 В 1 4000 м слаб. ливневой дождь 10/10 600 м
[Cb cap]
+15.3 +14.2 93 +16 +16 1005.5 939.9
12 16.07 ЮЗ 1 50 км {ливн. осадки} 10/10 600 м
[Cb cap]
+18.1 +13.2 73 +19 +19 1004.2 939.3 +19.7 4
18 16.07 Ю 2 н/о в посл. час ливневой дождь 10/10 600 м
[Cb cap]
+14.3 +13.4 94 +14 +14 1007.5 941.5
00 17.07 ЮЗ 1 50 км 10/10 600 м
[Cb cap]
+13.6 +11.9 89 +14 +14 1008.5 942.4 +13.1 16
06 17.07 ЮВ 2 50 км 6/3 600 м
[Cb cap Ci fib]
+19.1 +13.1 68 +21 +31 комфорт 1006.8 941.9
12 17.07 Ю 1 50 км 9/9 600 м
[Cb cap]
+20.1 +14.6 71 +24 +24 комфорт 1006.5 941.9 +23.0
18 17.07 штиль 0 н/о ясно +15.6 +14.4 93 +15 +15 1010.2 944.4
00 18.07 штиль 0 50 км 5/3 600 м
[Cb cap Ci fib]
+14.0 +13.1 94 +14 +15 1010.5 944.3 +13.9
06 18.07 Ю 1 50 км слаб. ливневой дождь, в посл. час гроза 6/5 600 м
[Cb cap Ci fib]
+19.2 +16.2 83 +22 +31 комфорт 1008.5 943.6
12 18.07 50 км н/о +20.6 +15.6 73 +24 +25 комфорт 1005.0 940.6 +21.7 3
18 18.07 Ю 1
{11}
н/о 10/5 600 м
[Cb cap Ci fib]
+16.3 +12.9 80 +17 +17 1008.0 942.4
00 19.07 штиль 0 50 км в посл. час ливневой дождь 9/9 600 м
[Cb cap]
+14.7 +13.8 94 +14 +15 1008.7 942.7 +13.5 2
06 19.07 З 1 10 км слаб. ливневой дождь 10/10 300 м
[Cb cap]
+25.7 +14.7 51 +28 +28 жарко 1008.3 943.3

 

Местоположение метеостанции Усть-Уса (Красноярский край, Россия): широта 51.95 долгота 92.22 высота над уровнем моря 577 м.

В архиве по умолчанию представлена погода в Усть-Усе за последнюю неделю. Архивные данные за месяц целиком и за предыдущие месяцы, начиная с января 2011 года, Вы можете получить, выбрав интересующий диапазон дат из раскрывающегося списка и нажав кнопку "Ввод!".


*Определитесь, кто Вы:
робот инопланетянин человек

Внимание! Время в таблицах - всемирное. Для получения местного времени необходимо прибавить поправку, которая равна 7 ч.

Смотрите также архив погоды в соседних городах и на ближайших метеорологических станциях:

Погода в Нижнеусинском (Красноярский край, Россия) (65 км)
Погода в Шагонаре (Тува, Россия) (69 км)
Погода в Чадане (Тува, Россия) (87 км)
Погода в Кантегире (Хакасия, Россия) (102 км)
Погода в Черемушках (Хакасия, Россия) (113 км)
Погода в Карловом Створе (Хакасия, Россия) (114 км)
Погода в Оленьей Речке (Красноярский край, Россия) (117 км)
Погода в Туране (Тува, Россия) (118 км)
Погода в Хандагайты (Тува, Россия) (135 км)
Погода в Саяногорске (Хакасия, Россия) (139 км)

Пояснения к столбцам:

Ветер - указаны скорость ветра в м/с - средняя за 10 мин, порывы в срок и между сроками (в фигурных скобках) и направление, откуда дует ветер: С - северный, СВ - северо-восточный, В - восточный, ЮВ - юго-восточный, Ю - южный, ЮЗ - юго-западный, З - западный, СЗ - северо-западный.
Видимость - горизонтальная дальность видимости в метрах или километрах. При видимости от 1 до 10 км при отсутствии осадков обычно наблюдается дымка, при ухудшении видимости до 1 км и менее - туман. В сухую погоду видимость может ухудшаться дымом, пылью или мглою.
Явления - указаны атмосферные явления, наблюдавшиеся в срок или в последний час перед сроком; фигурными скобками обозначены явления, наблюдавшиеся между сроками (за 1-3 часа до срока); квадратными скобками обозначены град или гололедные отложения с указанием их диаметра в мм.
Облачность - указаны через наклонную черту общая и нижняя облачность в баллах и высота нижней границы облаков в метрах; квадратными скобками обозначены формы облаков: Ci - перистые, Cs - перисто-слоистые, Cc - перисто-кучевые, Ac - высококучевые, As - высокослоистые, Sc - слоисто-кучевые, Ns - слоисто-дождевые, Cu - кучевые, Cb - кучево-дождевые. Подробнее классификацию облаков см. в Атласе облаков (PDF).
T - Температура воздуха - температура, измеренная на высоте 2 м над землей.
Td - Температура точки росы - температура, при понижении до которой содержащийся в воздухе водяной пар достигнет насыщения.
f - Относительная влажность воздуха - влажноcть воздуха, измеренная на высоте 2 м над землей.
Te - Эффективная температура - температура, которую ощущает одетый по сезону человек в тени. Характеристика душности погоды. При расчете учитывается влияние влажности воздуха и скорости ветра на теплоощущения человека.
Tes - Эффективная температура на солнце - температура, которую ощущает человек, с поправкой на солнечный нагрев. Характеристика знойности погоды. Зависит от высоты солнца над горизонтом, облачности и скорости ветра. Ночью, в пасмурную погоду, а также при ветре 12 м/с и более поправка равна нулю.
P - Атмосферное давление - приведенное к уровню моря атмосферное давление.
Po - Атмосферное давление - измеренное на уровне метеостанции атмосферное давление.
Tmin - Минимальная температура - минимум температуры воздуха на высоте 2 м над землей.
Tmax - Максимальная температура - максимум температуры воздуха на высоте 2 м над землей.
R - Количество осадков - Количество выпавших осадков за период времени, мм. При наведении курсора мыши на число - период времени, за который выпало указанное количество осадков.
R24 - Количество осадков - Количество выпавших осадков за 24 часа, мм.
S - Снежный покров - Высота снежного покрова, см. При наведении курсора мыши на число - состояние снежного покрова и степень покрытия местности в баллах.